Date,TemperatureHighF,TemperatureAvgF,TemperatureLowF,DewpointHighF,DewpointAvgF,DewpointLowF,HumidityHigh,HumidityAvg,HumidityLow,PressureMaxIn,PressureMinIn,WindSpeedMaxMPH,WindSpeedAvgMPH,GustSpeedMaxMPH,PrecipitationSumIn
2013-2-4,37.0,36.0,34.0,32.0,31.0,29.0,84,82,80,29.61,29.59,7,4,16,0.00
2013-2-5,35.0,27.8,20.0,30.0,23.7,17.0,89,84,74,29.93,29.60,13,4,21,0.01
2013-2-6,39.0,26.7,20.0,32.0,23.6,18.0,94,88,74,30.04,29.70,11,4,16,0.01
2013-2-7,25.0,20.1,16.0,24.0,18.4,14.0,95,93,91,30.16,30.03,6,2,13,0.00
2013-2-8,28.0,24.0,20.0,26.0,22.9,19.0,96,94,93,30.11,29.88,9,4,18,0.00
2013-2-9,27.0,24.6,21.0,26.0,23.4,20.0,96,95,90,32.00,29.78,5,2,8,0.00
2013-2-10,28.0,22.4,19.0,26.0,20.8,16.0,96,93,87,29.90,29.69,18,9,32,0.00
2013-2-11,24.0,20.8,18.0,19.0,17.9,15.0,94,89,81,30.01,29.80,18,8,27,0.00
2013-2-12,37.0,29.3,21.0,30.0,23.7,17.0,89,80,72,29.86,29.74,10,4,16,0.00
2013-2-13,34.0,31.5,30.0,29.0,22.2,-99.9,85,80,81,29.75,29.69,4,2,9,0.00
2013-2-17,43.0,38.6,33.0,35.0,32.7,29.0,90,80,68,29.55,29.43,16,6,26,0.00
2013-2-18,32.0,12.7,-1.0,29.0,9.0,-7.0,92,85,77,30.21,29.55,18,14,30,0.00
2013-2-19,4.0,-4.3,-12.0,-4.0,-10.0,-17.0,81,76,65,30.36,30.21,7,4,13,0.00
2013-2-20,14.0,3.3,-8.0,9.0,-1.8,-12.0,88,79,68,30.30,30.05,9,5,19,0.00
2013-2-21,24.0,17.2,13.0,16.0,12.6,10.0,90,82,64,30.13,30.05,6,3,14,0.00
2013-2-22,29.0,17.6,10.0,20.0,12.8,7.0,90,81,67,30.05,29.78,6,1,8,0.00
2013-2-23,37.0,19.8,7.0,29.0,15.8,4.0,91,85,70,31.91,29.67,5,1,10,0.00
2013-2-24,32.0,26.3,16.0,26.0,22.7,14.0,95,86,76,30.03,29.78,13,5,23,0.00
2013-2-25,45.0,27.6,12.0,30.0,20.6,10.0,93,77,49,30.02,29.83,13,3,19,0.00
2013-2-26,45.0,30.8,18.0,30.0,23.8,16.0,92,77,49,30.06,29.84,9,2,17,0.00
2013-2-27,30.0,29.1,28.0,28.0,27.1,27.0,94,92,90,30.08,30.06,7,6,11,0.00